Regional Weather Roundup
Issued by NWS

Home | Current Version | Previous Version | Text Only | Print | Product List | Glossary Off
Versions: 1 2 3 4 5 6 7 8 9 10 11 12 13 14 15 16 17 18 19 20 21 22 23 24 25 26 27

000
ASUS45 KBOU 251407
RWRCO

WEATHER ROUNDUP FOR COLORADO
NATIONAL WEATHER SERVICE DENVER/BOULDER CO
800 AM MDT SAT OCT 25 2014

NOTE: "FAIR" INDICATES FEW OR NO CLOUDS BELOW 12000 FEET WITH NO
SIGNIFICANT WEATHER AND/OR OBSTRUCTIONS TO VISIBILITY.

COZ001>005-013-030-031-251500-
...NORTHWEST COLORADO...

CITY           SKY/WX    TMP DP  RH WIND       PRES   REMARKS
CRAIG          CLEAR     26  22  84 CALM      30.31F
HAYDEN         CLEAR     37  23  56 E14       30.32F
MEEKER         CLEAR     33  27  78 E5        30.32F WCI  29
MOUNT WERNER   NOT AVBL
STEAMBOAT SPGS CLEAR     32  24  71 E3        30.36S
WALDEN         CLEAR     32  19  59 SE6       30.41R WCI  26
$$

COZ006>008-011-251500-
...WEST CENTRAL VALLEYS...

CITY           SKY/WX    TMP DP  RH WIND       PRES   REMARKS
GRAND JUNCTION CLEAR     45  32  60 SE18      30.25S
MONTROSE       CLEAR     39  27  62 S8        30.33S
EAGLE          CLEAR     28  27  93 CALM      30.45R
RIFLE          CLEAR     33  29  85 E3        30.33R
DELTA          CLEAR     40  29  65 E5        30.31S
NUCLA          CLEAR     39  25  56 CALM      30.36R
$$

COZ017>023-064>068-251500-
...SOUTHWEST COLORADO...

CITY           SKY/WX    TMP DP  RH WIND       PRES   REMARKS
DURANGO        PTCLDY    33  30  88 N3        30.36S
CORTEZ         CLEAR     31  25  78 CALM      30.32S
PAGOSA SPRINGS PTCLDY    36  31  85 CALM      30.43R
TELLURIDE      CLEAR     40  16  37 SE6       30.48F
WOLF CREEK PAS CLEAR     39  12  33 SW12        N/A
$$

COZ009-010-012-014-032>034-037-058>063-251500-
...CENTRAL COLORADO...

CITY           SKY/WX    TMP DP  RH WIND       PRES   REMARKS
ASPEN          CLEAR     34  17  50 S9        30.41S WCI  27
BUENA VISTA    CLEAR     31  20  64 NW7       30.45S WCI  24
COPPER MTN     PTCLDY    45   1  16 S6        30.64R
BERTHOUD PASS  FAIR      34  32  93 W21       30.66R WCI  22
COTTONWOOD PAS CLEAR     50   0  12 W9        30.52R
GUNNISON       PTCLDY    21  16  79 CALM      30.52R
KREMMLING      CLEAR     23  19  86 CALM        N/A
LEADVILLE      PTCLDY    27   9  46 NE7       30.52R WCI  19
MONARCH PASS   PTCLDY    37  18  44 W17       30.73R
SALIDA         CLEAR     41  20  43 NW8       30.51R
SUNLIGHT       CLEAR     43  18  36 CALM      30.56S
WILKERSON PASS NOT AVBL
$$

COZ069>075-251500-
...SAN LUIS VALLEY/SANGRE DE CRISTO MOUNTAINS...

CITY           SKY/WX    TMP DP  RH WIND       PRES   REMARKS
ALAMOSA        MOCLDY    26  20  77 CALM      30.43R
LA VETA PASS   CLEAR     45  19  36 S6        30.52S
SAGUACHE       PTCLDY    39  21  48 NW13G22   30.45R
$$

COZ035-036-038>040-251500-
...NORTHERN COLORADO FRONT RANGE...

CITY           SKY/WX    TMP DP  RH WIND       PRES   REMARKS
DENVER INTL AP PTCLDY    51  23  33 SW9       30.24R
DMNS CITY PARK   N/A     49  25  40 S7        30.25R
AURORA         NOT AVBL
FRONT RANGE AP CLEAR     45  30  57 S7        30.24S
ERIE MUNI ARPT CLEAR     36  30  81 S6        30.23S
BOULDER MUN AP CLEAR     46  28  49 W3        30.23S
CENTENNIAL     CLEAR     46  24  42 S8        30.27R
BROOMFIELD     NOT AVBL
FORT COLLINS   CLEAR     45  28  53 CALM      30.23S
LONGMONT       CLEAR     43  30  60 W5        30.24S HAZE
$$

COZ041-046-047-076>085-087-088-251500-
...PIKES PEAK/PALMER DIVIDE AND SOUTHERN FOOTHILLS...

CITY           SKY/WX    TMP DP  RH WIND       PRES   REMARKS
COLO. SPRINGS  CLEAR     53  16  23 N8        30.28R
A. F. ACADEMY  NOT AVBL
ELLICOTT       NOT AVBL
FALCON         CLEAR     54  13  19 N3        30.32R
FORT CARSON    NOT AVBL
LIMON          CLEAR     47  28  47 W9        30.24R
MONUMENT HILL  CLEAR     41  21  45 SW7       30.33R
TRINIDAD       PTCLDY    51  26  37 W14       30.25S
$$

COZ042>045-048>051-090-091-251500-
...NORTHEAST COLORADO...

CITY           SKY/WX    TMP DP  RH WIND       PRES   REMARKS
GREELEY ARPT   CLEAR     36  27  69 W3        30.23R
AKRON          PTCLDY    45  30  55 W14       30.18R
BURLINGTON     CLEAR     48  33  56 W5        30.16R
WRAY           CLEAR     45  32  60 W5        30.16R
STERLING       PTCLDY    36  34  93 S6        30.16S
HOLYOKE        CLEAR     43  32  65 W6        30.16R
FORT MORGAN    PTCLDY    37  31  77 W12       30.20R
$$

COZ086-089-092>099-251500-
...SOUTHEAST COLORADO...

CITY           SKY/WX    TMP DP  RH WIND       PRES   REMARKS
PUEBLO         PTCLDY    46  27  47 W6        30.20R
LA JUNTA       PTCLDY    49  31  49 W10       30.17R
LAMAR          CLEAR     49  34  56 W10       30.13R
SPRINGFIELD      N/A     54  34  46 NW9       30.16R
$$



USA.gov is the U.S. government's official web portal to all federal, state and local government web resources and services.